When you browse on this site, cookies collect data to enhance your experience and personalize the content and advertising you see.
Visit our Privacy Policy to learn more. By continuing to use the site, you agree to this use of cookies and data.
  • en France
  • Liste des pays
  • À 7 jours
  • Température de l'eau
  • Carte météo
  • Widgets météo
  • user-avatar
    Se connecter

    Météo par heure à Maun

    Ce jour, 7 Décembre, Samedi

    Heure Température Précipitation Vent Pression Humidité
    00:00 +26°C° 0.3 mm 2 m/s 678 mmHg 65%
    01:00 +25°C° 0.3 mm 2 m/s 677 mmHg 67%
    02:00 +25°C° 0 mm 2 m/s 677 mmHg 69%
    03:00 +25°C° 0 mm 2 m/s 677 mmHg 70%
    04:00 +24°C° 0 mm 2 m/s 677 mmHg 72%
    05:00 +24°C° 0 mm 2 m/s 677 mmHg 73%
    06:00 +25°C° 0 mm 3 m/s 678 mmHg 69%
    07:00 +26°C° 0 mm 3 m/s 678 mmHg 65%
    08:00 +27°C° 0 mm 4 m/s 679 mmHg 61%
    09:00 +29°C° 0.2 mm 4 m/s 679 mmHg 55%
    10:00 +32°C° 0.2 mm 4 m/s 679 mmHg 49%
    11:00 +34°C° 0.2 mm 4 m/s 679 mmHg 43%
    12:00 +34°C° 0 mm 4 m/s 679 mmHg 42%
    13:00 +34°C° 0 mm 4 m/s 678 mmHg 40%
    14:00 +34°C° 0 mm 4 m/s 678 mmHg 39%
    15:00 +35°C° 0 mm 3 m/s 677 mmHg 38%
    16:00 +35°C° 0 mm 3 m/s 677 mmHg 38%
    17:00 +35°C° 0 mm 3 m/s 676 mmHg 37%
    18:00 +33°C° 0.5 mm 3 m/s 676 mmHg 43%
    19:00 +30°C° 0.5 mm 3 m/s 676 mmHg 49%
    20:00 +29°C° 0.5 mm 3 m/s 677 mmHg 55%
    21:00 +28°C° 0.9 mm 3 m/s 677 mmHg 60%
    22:00 +27°C° 0.9 mm 2 m/s 677 mmHg 66%
    23:00 +26°C° 0.9 mm 2 m/s 677 mmHg 71%

    Demain, 8 Décembre, Dimanche

    Heure Température Précipitation Vent Pression Humidité
    00:00 +26°C° 0.1 mm 2 m/s 677 mmHg 70%
    01:00 +26°C° 0.1 mm 1 m/s 677 mmHg 69%
    02:00 +26°C° 0.1 mm 1 m/s 676 mmHg 69%
    03:00 +26°C° 0.1 mm 1 m/s 676 mmHg 69%
    04:00 +26°C° 0.1 mm 1 m/s 676 mmHg 69%
    05:00 +26°C° 0.1 mm 1 m/s 676 mmHg 70%
    06:00 +26°C° 0.1 mm 1 m/s 677 mmHg 67%
    07:00 +27°C° 0.1 mm 2 m/s 678 mmHg 65%
    08:00 +28°C° 0.1 mm 2 m/s 678 mmHg 62%
    09:00 +29°C° 0 mm 2 m/s 678 mmHg 56%
    10:00 +31°C° 0 mm 2 m/s 678 mmHg 50%
    11:00 +32°C° 0 mm 2 m/s 678 mmHg 45%
    12:00 +34°C° 0 mm 2 m/s 678 mmHg 40%
    13:00 +35°C° 0 mm 2 m/s 677 mmHg 36%
    14:00 +36°C° 0 mm 2 m/s 677 mmHg 32%
    15:00 +36°C° 0 mm 2 m/s 677 mmHg 33%
    16:00 +36°C° 0 mm 2 m/s 676 mmHg 34%
    17:00 +35°C° 0 mm 2 m/s 676 mmHg 35%
    18:00 +32°C° 0.5 mm 2 m/s 676 mmHg 43%
    19:00 +30°C° 0.5 mm 2 m/s 676 mmHg 51%
    20:00 +28°C° 0.5 mm 1 m/s 677 mmHg 59%
    21:00 +27°C° 0.7 mm 2 m/s 677 mmHg 64%
    22:00 +26°C° 0.7 mm 2 m/s 677 mmHg 69%
    23:00 +26°C° 0.7 mm 3 m/s 677 mmHg 74%

    Après-demain, 9 Décembre, Lundi

    Heure Température Précipitation Vent Pression Humidité
    00:00 +25°C° 0.5 mm 3 m/s 677 mmHg 75%
    01:00 +25°C° 0.5 mm 3 m/s 677 mmHg 75%
    02:00 +25°C° 0.5 mm 3 m/s 676 mmHg 76%
    03:00 +25°C° 0.3 mm 3 m/s 676 mmHg 77%
    04:00 +24°C° 0.3 mm 3 m/s 676 mmHg 79%
    05:00 +24°C° 0.3 mm 3 m/s 676 mmHg 80%
    06:00 +24°C° 0.2 mm 3 m/s 677 mmHg 78%
    07:00 +25°C° 0.2 mm 3 m/s 677 mmHg 76%
    08:00 +25°C° 0.2 mm 3 m/s 678 mmHg 75%
    09:00 +27°C° 0.4 mm 3 m/s 678 mmHg 68%
    10:00 +28°C° 0.4 mm 4 m/s 678 mmHg 62%
    11:00 +30°C° 0.4 mm 4 m/s 678 mmHg 55%
    12:00 +30°C° 0.6 mm 3 m/s 678 mmHg 52%
    13:00 +31°C° 0.6 mm 2 m/s 677 mmHg 48%
    14:00 +32°C° 0.6 mm 2 m/s 677 mmHg 45%
    15:00 +32°C° 0 mm 2 m/s 677 mmHg 44%
    16:00 +32°C° 0 mm 2 m/s 676 mmHg 43%
    17:00 +32°C° 0 mm 2 m/s 676 mmHg 42%
    18:00 +29°C° 2 mm 2 m/s 676 mmHg 55%
    19:00 +27°C° 2 mm 3 m/s 676 mmHg 68%
    20:00 +24°C° 2 mm 3 m/s 676 mmHg 81%
    21:00 +24°C° 3.7 mm 3 m/s 677 mmHg 77%
    22:00 +24°C° 3.7 mm 3 m/s 677 mmHg 73%
    23:00 +24°C° 3.7 mm 2 m/s 678 mmHg 69%

    10 Décembre, Mardi

    Heure Température Précipitation Vent Pression Humidité
    00:00 +24°C° 0 mm 2 m/s 678 mmHg 71%
    01:00 +24°C° 0 mm 2 m/s 677 mmHg 73%
    02:00 +24°C° 0 mm 2 m/s 677 mmHg 75%
    03:00 +23°C° 0 mm 2 m/s 677 mmHg 75%
    04:00 +23°C° 0 mm 2 m/s 677 mmHg 76%
    05:00 +23°C° 0 mm 2 m/s 677 mmHg 77%
    06:00 +24°C° 0 mm 2 m/s 677 mmHg 71%
    07:00 +25°C° 0 mm 2 m/s 678 mmHg 66%
    08:00 +26°C° 0 mm 2 m/s 678 mmHg 61%
    09:00 +28°C° 0 mm 2 m/s 679 mmHg 54%
    10:00 +30°C° 0 mm 2 m/s 679 mmHg 47%
    11:00 +32°C° 0 mm 2 m/s 679 mmHg 39%
    12:00 +32°C° 0 mm 2 m/s 679 mmHg 37%
    13:00 +34°C° 0 mm 2 m/s 678 mmHg 34%
    14:00 +34°C° 0 mm 2 m/s 677 mmHg 32%
    15:00 +32°C° 0 mm 2 m/s 677 mmHg 36%
    16:00 +30°C° 0 mm 3 m/s 677 mmHg 41%
    17:00 +29°C° 0 mm 3 m/s 676 mmHg 45%
    18:00 +29°C° 0 mm 2 m/s 676 mmHg 44%
    19:00 +28°C° 0 mm 2 m/s 677 mmHg 44%
    20:00 +28°C° 0 mm 1 m/s 677 mmHg 43%
    21:00 +28°C° 0 mm 1 m/s 677 mmHg 44%
    22:00 +28°C° 0 mm 1 m/s 678 mmHg 44%
    23:00 +27°C° 0 mm 1 m/s 678 mmHg 44%

    11 Décembre, Mercredi

    Heure Température Précipitation Vent Pression Humidité
    00:00 +27°C° 0 mm 1 m/s 678 mmHg 45%
    01:00 +26°C° 0 mm 1 m/s 677 mmHg 46%
    02:00 +25°C° 0 mm 1 m/s 677 mmHg 47%
    03:00 +23°C° 0 mm 0 m/s 677 mmHg 48%
    04:00 +23°C° 0 mm 0 m/s 677 mmHg 49%
    05:00 +22°C° 0 mm 0 m/s 677 mmHg 50%
    06:00 +24°C° 0 mm 0 m/s 678 mmHg 46%
    07:00 +25°C° 0 mm 0 m/s 678 mmHg 42%
    08:00 +27°C° 0 mm 0 m/s 679 mmHg 38%
    09:00 +29°C° 0 mm 0 m/s 679 mmHg 33%
    10:00 +34°C° 0 mm 1 m/s 680 mmHg 27%
    11:00 +36°C° 0 mm 1 m/s 680 mmHg 21%
    12:00 +36°C° 0 mm 1 m/s 680 mmHg 21%
    13:00 +36°C° 0 mm 1 m/s 679 mmHg 20%
    14:00 +36°C° 0 mm 1 m/s 679 mmHg 20%
    15:00 +36°C° 0 mm 1 m/s 678 mmHg 20%
    16:00 +35°C° 0 mm 1 m/s 678 mmHg 21%
    17:00 +35°C° 0 mm 1 m/s 678 mmHg 21%
    18:00 +34°C° 0 mm 1 m/s 678 mmHg 24%
    19:00 +32°C° 0 mm 1 m/s 678 mmHg 26%
    20:00 +31°C° 0 mm 1 m/s 678 mmHg 29%
    21:00 +31°C° 0 mm 1 m/s 678 mmHg 30%
    22:00 +30°C° 0 mm 1 m/s 678 mmHg 32%
    23:00 +30°C° 0 mm 1 m/s 679 mmHg 33%

    12 Décembre, Jeudi

    Heure Température Précipitation Vent Pression Humidité
    00:00 +29°C° 0 mm 1 m/s 678 mmHg 35%
    01:00 +29°C° 0 mm 1 m/s 678 mmHg 36%
    02:00 +28°C° 0 mm 1 m/s 677 mmHg 38%
    03:00 +27°C° 0 mm 1 m/s 677 mmHg 39%
    04:00 +27°C° 0 mm 2 m/s 677 mmHg 40%
    05:00 +26°C° 0 mm 2 m/s 677 mmHg 42%
    06:00 +28°C° 0 mm 2 m/s 678 mmHg 39%
    07:00 +29°C° 0 mm 2 m/s 679 mmHg 36%
    08:00 +31°C° 0 mm 2 m/s 679 mmHg 34%
    09:00 +34°C° 0 mm 2 m/s 680 mmHg 29%
    10:00 +36°C° 0 mm 2 m/s 680 mmHg 24%
    11:00 +37°C° 0 mm 1 m/s 680 mmHg 19%
    12:00 +36°C° 0 mm 1 m/s 680 mmHg 20%
    13:00 +36°C° 0 mm 1 m/s 679 mmHg 20%
    14:00 +35°C° 0 mm 1 m/s 679 mmHg 20%
    15:00 +35°C° 0 mm 1 m/s 678 mmHg 21%
    16:00 +35°C° 0 mm 1 m/s 678 mmHg 22%
    17:00 +35°C° 0 mm 1 m/s 678 mmHg 23%
    18:00 +33°C° 0 mm 1 m/s 678 mmHg 25%
    19:00 +32°C° 0 mm 1 m/s 678 mmHg 27%
    20:00 +31°C° 0 mm 1 m/s 678 mmHg 28%
    21:00 +30°C° 0 mm 1 m/s 679 mmHg 29%
    22:00 +30°C° 0 mm 1 m/s 679 mmHg 29%
    23:00 +28°C° 0 mm 0 m/s 679 mmHg 30%
    Voir plus